,,PA_Meas_PMT16A,,PR_Meas_QMR101_102,,RH_Meas_QMH101,,SR_Meas_QMS101,,TA_Meas_QMH101,,GenWind,,GenWind,
time,status,PA,status,PR,status,RH,status,SR,status,TA,status,DirAvg,status,SpdAvg,
2010-07-08, 00:00:04,VALID,919.815,VALID,0,VALID,97.2977,VALID,0,VALID,19.1568,VALID,9,VALID,0.335547,
2010-07-08, 00:01:04,VALID,919.788,VALID,0.2,VALID,97.2824,VALID,0,VALID,19.1373,VALID,9,VALID,0.196484,
2010-07-08, 00:02:04,VALID,919.804,VALID,0.2,VALID,97.2672,VALID,0,VALID,19.1164,VALID,9,VALID,0.303125,
2010-07-08, 00:03:04,VALID,919.792,VALID,0.2,VALID,97.2748,VALID,0,VALID,19.1373,VALID,9,VALID,0.0121094,
2010-07-08, 00:04:04,VALID,919.807,VALID,0.2,VALID,97.29,VALID,0,VALID,19.1164,VALID,9,VALID,0,
2010-07-08, 00:05:04,VALID,919.801,VALID,0,VALID,97.29,VALID,0,VALID,19.1359,VALID,9,VALID,0,
2010-07-08, 00:06:04,VALID,919.816,VALID,0.2,VALID,97.2748,VALID,0,VALID,19.1164,VALID,9,VALID,0.480859,
2010-07-08, 00:07:04,VALID,919.819,VALID,0.2,VALID,97.2748,VALID,0,VALID,19.1373,VALID,9,VALID,0.108594,
2010-07-08, 00:08:04,VALID,919.811,VALID,0,VALID,97.2748,VALID,0,VALID,19.0983,VALID,9,VALID,0.317969,
2010-07-08, 00:09:04,VALID,919.774,VALID,0.2,VALID,97.2824,VALID,0,VALID,19.0983,VALID,9,VALID,0.0109375,
2010-07-08, 00:10:04,VALID,919.794,VALID,0.2,VALID,97.29,VALID,0,VALID,19.1373,VALID,9,VALID,0.291406,
2010-07-08, 00:11:04,VALID,919.756,VALID,0.2,VALID,97.3053,VALID,0,VALID,19.1373,VALID,9,VALID,0.29375,
2010-07-08, 00:12:04,VALID,919.752,VALID,0.2,VALID,97.2977,VALID,0,VALID,19.1164,VALID,9,VALID,0.551953,
2010-07-08, 00:13:04,VALID,919.754,VALID,0.2,VALID,97.2977,VALID,0,VALID,19.1359,VALID,9,VALID,0.533203,
2010-07-08, 00:14:04,VALID,919.745,VALID,0,VALID,97.3129,VALID,0,VALID,19.1373,VALID,9,VALID,0.605078,
2010-07-08, 00:15:04,VALID,919.756,VALID,0.2,VALID,97.2977,VALID,0,VALID,19.0983,VALID,9,VALID,0.58125,
2010-07-08, 00:16:04,VALID,919.74,VALID,0.2,VALID,97.2824,VALID,0,VALID,19.0788,VALID,9,VALID,0.228516,
2010-07-08, 00:17:04,VALID,919.714,VALID,0,VALID,97.2748,VALID,0,VALID,19.0398,VALID,9,VALID,0.132813,
2010-07-08, 00:18:04,VALID,919.766,VALID,0.2,VALID,97.3053,VALID,0,VALID,19.0593,VALID,9,VALID,0.342187,
2010-07-08, 00:19:04,VALID,919.756,VALID,0.2,VALID,97.3205,VALID,0,VALID,19.0203,VALID,9,VALID,0.0804688,
2010-07-08, 00:20:04,VALID,919.755,VALID,0,VALID,97.2977,VALID,0,VALID,19.0593,VALID,9,VALID,0.401172,
2010-07-08, 00:21:04,VALID,919.75,VALID,0.2,VALID,97.3053,VALID,0,VALID,19.0398,VALID,9,VALID,0.125781,
2010-07-08, 00:22:04,VALID,919.753,VALID,0.2,VALID,97.3205,VALID,0,VALID,19.0189,VALID,9,VALID,0.09375,
2010-07-08, 00:23:04,VALID,919.728,VALID,0,VALID,97.3281,VALID,0.107441,VALID,19.0593,VALID,9,VALID,0,
2010-07-08, 00:24:04,VALID,919.725,VALID,0.2,VALID,97.3358,VALID,0,VALID,19.0189,VALID,9,VALID,0,
2010-07-08, 00:25:04,VALID,919.688,VALID,0.2,VALID,97.3281,VALID,0,VALID,19.0398,VALID,9,VALID,0.0921875,
2010-07-08, 00:26:04,VALID,919.677,VALID,0,VALID,97.3434,VALID,0,VALID,19.0398,VALID,9,VALID,0.114844,
2010-07-08, 00:27:04,VALID,919.629,VALID,0.2,VALID,97.3434,VALID,0,VALID,19.0593,VALID,9,VALID,0.202734,
2010-07-08, 00:28:04,VALID,919.605,VALID,0,VALID,97.3281,VALID,0,VALID,19.0593,VALID,9,VALID,0.470313,
2010-07-08, 00:29:04,VALID,919.607,VALID,0.2,VALID,97.3358,VALID,0,VALID,19.0593,VALID,9,VALID,0.341016,
2010-07-08, 00:30:04,VALID,919.571,VALID,0,VALID,97.3205,VALID,0,VALID,19.0398,VALID,9,VALID,0.2375,
2010-07-08, 00:31:04,VALID,919.565,VALID,0.2,VALID,97.3358,VALID,0,VALID,19.0593,VALID,9,VALID,0.582812,
2010-07-08, 00:32:04,VALID,919.538,VALID,0,VALID,97.3358,VALID,0,VALID,19.0398,VALID,9,VALID,0.262891,
2010-07-08, 00:33:04,VALID,919.528,VALID,0.2,VALID,97.351,VALID,0,VALID,19.0593,VALID,9,VALID,0,
2010-07-08, 00:34:04,VALID,919.518,VALID,0,VALID,97.3434,VALID,0,VALID,19.0384,VALID,9,VALID,0.0859375,
2010-07-08, 00:35:04,VALID,919.502,VALID,0,VALID,97.3281,VALID,0,VALID,19.0788,VALID,9,VALID,0.614453,
2010-07-08, 00:36:04,VALID,919.515,VALID,0.2,VALID,97.3205,VALID,0,VALID,19.0398,VALID,9,VALID,0.771875,
2010-07-08, 00:37:04,VALID,919.468,VALID,0,VALID,97.3434,VALID,0,VALID,19.0008,VALID,9,VALID,0.396875,
2010-07-08, 00:38:04,VALID,919.479,VALID,0,VALID,97.3586,VALID,0,VALID,19.0203,VALID,9,VALID,0.405469,
2010-07-08, 00:39:04,VALID,919.453,VALID,0,VALID,97.3358,VALID,0,VALID,19.0203,VALID,9,VALID,0.482812,
2010-07-08, 00:40:04,VALID,919.468,VALID,0.2,VALID,97.3434,VALID,0,VALID,19.0008,VALID,9,VALID,0.520312,
2010-07-08, 00:41:04,VALID,919.426,VALID,0,VALID,97.3586,VALID,0,VALID,19.0203,VALID,9,VALID,0.313672,
2010-07-08, 00:42:04,VALID,919.416,VALID,0,VALID,97.3281,VALID,0,VALID,19.0398,VALID,9,VALID,0.117188,
2010-07-08, 00:43:04,VALID,919.418,VALID,0,VALID,97.351,VALID,0,VALID,18.9799,VALID,9,VALID,0.0078125,
2010-07-08, 00:44:04,VALID,919.414,VALID,0.2,VALID,97.351,VALID,0,VALID,18.9814,VALID,9,VALID,0,
2010-07-08, 00:45:04,VALID,919.37,VALID,0,VALID,97.3586,VALID,0,VALID,18.9619,VALID,9,VALID,0,
2010-07-08, 00:46:04,VALID,919.414,VALID,0.2,VALID,97.3739,VALID,0,VALID,18.9814,VALID,9,VALID,0,
2010-07-08, 00:47:04,VALID,919.381,VALID,0,VALID,97.3663,VALID,0,VALID,18.9814,VALID,9,VALID,0,
2010-07-08, 00:48:04,VALID,919.367,VALID,0,VALID,97.3663,VALID,0,VALID,18.9814,VALID,9,VALID,0,
2010-07-08, 00:49:04,VALID,919.36,VALID,0.2,VALID,97.3815,VALID,0,VALID,19.0008,VALID,9,VALID,0,
2010-07-08, 00:50:04,VALID,919.366,VALID,0,VALID,97.3663,VALID,0,VALID,18.9814,VALID,9,VALID,0,
2010-07-08, 00:51:04,VALID,919.346,VALID,0.2,VALID,97.3815,VALID,0,VALID,19.0008,VALID,9,VALID,0,
2010-07-08, 00:52:04,VALID,919.338,VALID,0,VALID,97.3739,VALID,0,VALID,19.0008,VALID,9,VALID,0,
2010-07-08, 00:53:04,VALID,919.312,VALID,0,VALID,97.4044,VALID,0,VALID,18.9799,VALID,9,VALID,0,
2010-07-08, 00:54:04,VALID,919.304,VALID,0.2,VALID,97.3891,VALID,0,VALID,18.9799,VALID,9,VALID,0,
2010-07-08, 00:55:04,VALID,919.301,VALID,0,VALID,97.3968,VALID,0,VALID,19.0008,VALID,9,VALID,0,
2010-07-08, 00:56:04,VALID,919.309,VALID,0,VALID,97.3891,VALID,0,VALID,19.0398,VALID,9,VALID,0,
2010-07-08, 00:57:04,VALID,919.302,VALID,0,VALID,97.3891,VALID,0,VALID,19.0203,VALID,9,VALID,0,
2010-07-08, 00:58:04,VALID,919.278,VALID,0.2,VALID,97.4044,VALID,0,VALID,19.0008,VALID,9,VALID,0,
2010-07-08, 00:59:04,VALID,919.27,VALID,0,VALID,97.4044,VALID,0,VALID,18.9814,VALID,9,VALID,0,
2010-07-08, 01:00:04,VALID,919.275,VALID,0,VALID,97.3968,VALID,0,VALID,18.9619,VALID,9,VALID,0,
2010-07-08, 01:01:04,VALID,919.292,VALID,0.2,VALID,97.4044,VALID,0,VALID,18.9814,VALID,9,VALID,0,
2010-07-08, 01:02:04,VALID,919.283,VALID,0,VALID,97.3739,VALID,0,VALID,18.9619,VALID,9,VALID,0,
2010-07-08, 01:03:04,VALID,919.245,VALID,0,VALID,97.3968,VALID,0,VALID,18.9814,VALID,9,VALID,0,
2010-07-08, 01:04:04,VALID,919.238,VALID,0.2,VALID,97.4044,VALID,0,VALID,18.9814,VALID,9,VALID,0,
2010-07-08, 01:05:04,VALID,919.233,VALID,0,VALID,97.4044,VALID,0,VALID,18.9814,VALID,9,VALID,0,
2010-07-08, 01:06:04,VALID,919.261,VALID,0.2,VALID,97.4044,VALID,0,VALID,18.9814,VALID,9,VALID,0,
2010-07-08, 01:07:04,VALID,919.233,VALID,0,VALID,97.3891,VALID,0,VALID,19.0008,VALID,9,VALID,0.0632813,
2010-07-08, 01:08:04,VALID,919.213,VALID,0,VALID,97.3891,VALID,0,VALID,18.9814,VALID,9,VALID,0.00195313,
2010-07-08, 01:09:04,VALID,919.196,VALID,0.2,VALID,97.4273,VALID,0,VALID,18.9814,VALID,9,VALID,0,
2010-07-08, 01:10:04,VALID,919.196,VALID,0,VALID,97.412,VALID,0,VALID,19.0008,VALID,9,VALID,0,
2010-07-08, 01:11:04,VALID,919.212,VALID,0,VALID,97.4196,VALID,0,VALID,19.0008,VALID,9,VALID,0,
2010-07-08, 01:12:04,VALID,919.221,VALID,0.2,VALID,97.412,VALID,0,VALID,18.9799,VALID,9,VALID,0.119531,
2010-07-08, 01:13:04,VALID,919.186,VALID,0,VALID,97.4349,VALID,0,VALID,19.0008,VALID,9,VALID,0,
2010-07-08, 01:14:04,VALID,919.187,VALID,0,VALID,97.412,VALID,0,VALID,19.0008,VALID,9,VALID,0,
2010-07-08, 01:15:04,VALID,919.195,VALID,0.2,VALID,97.4044,VALID,0,VALID,18.9814,VALID,9,VALID,0,
2010-07-08, 01:16:04,VALID,919.192,VALID,0,VALID,97.412,VALID,0,VALID,18.9814,VALID,9,VALID,0,
2010-07-08, 01:17:04,VALID,919.184,VALID,0.2,VALID,97.4196,VALID,0,VALID,19.0023,VALID,9,VALID,0,
2010-07-08, 01:18:04,VALID,919.156,VALID,0,VALID,97.4273,VALID,0,VALID,18.9814,VALID,9,VALID,0,
2010-07-08, 01:19:04,VALID,919.125,VALID,0.2,VALID,97.4349,VALID,0,VALID,18.9814,VALID,9,VALID,0,
2010-07-08, 01:20:04,VALID,919.105,VALID,0,VALID,97.4501,VALID,0,VALID,19.0008,VALID,9,VALID,0,
2010-07-08, 01:21:04,VALID,919.09,VALID,0,VALID,97.4273,VALID,0,VALID,19.0008,VALID,9,VALID,0,
2010-07-08, 01:22:04,VALID,919.042,VALID,0.2,VALID,97.4273,VALID,0,VALID,19.0203,VALID,9,VALID,0,
2010-07-08, 01:23:04,VALID,919.048,VALID,0,VALID,97.4349,VALID,0,VALID,19.0203,VALID,9,VALID,0,
2010-07-08, 01:24:04,VALID,919.05,VALID,0,VALID,97.4501,VALID,0,VALID,19.0008,VALID,9,VALID,0,
2010-07-08, 01:25:04,VALID,919.073,VALID,0,VALID,97.4196,VALID,0,VALID,18.9424,VALID,9,VALID,0,
2010-07-08, 01:26:04,VALID,919.068,VALID,0.2,VALID,97.4349,VALID,0,VALID,18.9229,VALID,9,VALID,0,
2010-07-08, 01:27:04,VALID,919.087,VALID,0,VALID,97.4349,VALID,0,VALID,18.9424,VALID,9,VALID,0,
2010-07-08, 01:28:04,VALID,919.094,VALID,0,VALID,97.4425,VALID,0,VALID,18.9214,VALID,9,VALID,0,
2010-07-08, 01:29:04,VALID,919.087,VALID,0,VALID,97.4349,VALID,0,VALID,18.9619,VALID,9,VALID,0,
2010-07-08, 01:30:04,VALID,919.135,VALID,0,VALID,97.4425,VALID,0,VALID,18.9814,VALID,9,VALID,0,
2010-07-08, 01:31:04,VALID,919.12,VALID,0.2,VALID,97.4425,VALID,0,VALID,18.9619,VALID,9,VALID,0,
2010-07-08, 01:32:04,VALID,919.15,VALID,0,VALID,97.4577,VALID,0,VALID,18.9619,VALID,9,VALID,0,
2010-07-08, 01:33:04,VALID,919.159,VALID,0,VALID,97.4425,VALID,0,VALID,18.9619,VALID,9,VALID,0,
2010-07-08, 01:34:04,VALID,919.145,VALID,0,VALID,97.4501,VALID,0,VALID,18.9424,VALID,9,VALID,0,
2010-07-08, 01:35:04,VALID,919.157,VALID,0.2,VALID,97.4501,VALID,0,VALID,18.9229,VALID,9,VALID,0,
2010-07-08, 01:36:04,VALID,919.153,VALID,0,VALID,97.4349,VALID,0,VALID,18.9229,VALID,9,VALID,0,
2010-07-08, 01:37:04,VALID,919.207,VALID,0,VALID,97.4577,VALID,0,VALID,18.9424,VALID,9,VALID,0,
2010-07-08, 01:38:04,VALID,919.179,VALID,0,VALID,97.473,VALID,0,VALID,18.9424,VALID,9,VALID,0,
2010-07-08, 01:39:04,VALID,919.215,VALID,0,VALID,97.4501,VALID,0,VALID,18.9229,VALID,9,VALID,0,
2010-07-08, 01:40:04,VALID,919.2,VALID,0.2,VALID,97.4501,VALID,0,VALID,18.9424,VALID,9,VALID,0,
2010-07-08, 01:41:04,VALID,919.194,VALID,0,VALID,97.4501,VALID,0,VALID,18.9424,VALID,9,VALID,0,
2010-07-08, 01:42:04,VALID,919.224,VALID,0,VALID,97.4577,VALID,0,VALID,18.9424,VALID,9,VALID,0,
2010-07-08, 01:43:04,VALID,919.232,VALID,0,VALID,97.4501,VALID,0,VALID,18.9438,VALID,9,VALID,0,
2010-07-08, 01:44:04,VALID,919.234,VALID,0.2,VALID,97.4425,VALID,0,VALID,18.9229,VALID,9,VALID,0,
2010-07-08, 01:45:04,VALID,919.204,VALID,0,VALID,97.4654,VALID,0,VALID,18.9034,VALID,9,VALID,0,
2010-07-08, 01:46:04,VALID,919.219,VALID,0,VALID,97.4577,VALID,0,VALID,18.9048,VALID,9,VALID,0,
2010-07-08, 01:47:04,VALID,919.206,VALID,0,VALID,97.4577,VALID,0,VALID,18.9034,VALID,9,VALID,0,
2010-07-08, 01:48:04,VALID,919.181,VALID,0.2,VALID,97.4501,VALID,0,VALID,18.8644,VALID,9,VALID,0,
2010-07-08, 01:49:04,VALID,919.189,VALID,0,VALID,97.4577,VALID,0,VALID,18.8644,VALID,9,VALID,0,
2010-07-08, 01:50:04,VALID,919.144,VALID,0,VALID,97.473,VALID,0.107441,VALID,18.8824,VALID,9,VALID,0,
2010-07-08, 01:51:04,VALID,919.147,VALID,0.2,VALID,97.4577,VALID,0.107441,VALID,18.8824,VALID,9,VALID,0,
2010-07-08, 01:52:04,VALID,919.138,VALID,0,VALID,97.4806,VALID,0.107441,VALID,18.8824,VALID,9,VALID,0,
2010-07-08, 01:53:04,VALID,919.106,VALID,0,VALID,97.5035,VALID,0.107441,VALID,18.8629,VALID,9,VALID,0,
2010-07-08, 01:54:04,VALID,919.122,VALID,0.2,VALID,97.4806,VALID,0.107441,VALID,18.8434,VALID,9,VALID,0.466406,
2010-07-08, 01:55:04,VALID,919.101,VALID,0,VALID,97.5035,VALID,0.107441,VALID,18.8629,VALID,9,VALID,0.510938,
2010-07-08, 01:56:04,VALID,919.072,VALID,0,VALID,97.4806,VALID,0.107441,VALID,18.8434,VALID,9,VALID,0.553125,
2010-07-08, 01:57:04,VALID,919.094,VALID,0.2,VALID,97.4882,VALID,0.107441,VALID,18.8434,VALID,9,VALID,0.429688,
2010-07-08, 01:58:04,VALID,919.077,VALID,0,VALID,97.4654,VALID,0,VALID,18.8434,VALID,9,VALID,0.224219,
2010-07-08, 01:59:04,VALID,919.039,VALID,0,VALID,97.4959,VALID,0,VALID,18.8449,VALID,9,VALID,0.195703,
2010-07-08, 02:00:04,VALID,919.066,VALID,0.2,VALID,97.4882,VALID,0,VALID,18.824,VALID,9,VALID,0.223828,
2010-07-08, 02:01:04,VALID,918.988,VALID,0,VALID,97.4882,VALID,0,VALID,18.8254,VALID,9,VALID,0.184375,
2010-07-08, 02:02:04,VALID,919.005,VALID,0,VALID,97.4806,VALID,0,VALID,18.8059,VALID,9,VALID,0.075,
2010-07-08, 02:03:04,VALID,918.982,VALID,0,VALID,97.5035,VALID,0,VALID,18.8268,VALID,9,VALID,0.381641,
2010-07-08, 02:04:04,VALID,918.963,VALID,0.2,VALID,97.4806,VALID,0,VALID,18.7864,VALID,9,VALID,0.289063,
2010-07-08, 02:05:04,VALID,918.983,VALID,0,VALID,97.4959,VALID,0,VALID,18.7669,VALID,9,VALID,0.559766,
2010-07-08, 02:06:04,VALID,918.968,VALID,0,VALID,97.473,VALID,0,VALID,18.7864,VALID,9,VALID,0.442969,
2010-07-08, 02:07:04,VALID,918.954,VALID,0,VALID,97.5035,VALID,0,VALID,18.8073,VALID,9,VALID,0.194141,
2010-07-08, 02:08:04,VALID,918.928,VALID,0,VALID,97.5111,VALID,0,VALID,18.8073,VALID,9,VALID,0.330078,
2010-07-08, 02:09:04,VALID,918.919,VALID,0,VALID,97.5111,VALID,0,VALID,18.8059,VALID,9,VALID,0.490234,
2010-07-08, 02:10:04,VALID,918.869,VALID,0,VALID,97.4806,VALID,0,VALID,18.8059,VALID,9,VALID,0.621484,
2010-07-08, 02:11:04,VALID,918.86,VALID,0,VALID,97.4882,VALID,0,VALID,18.7864,VALID,9,VALID,0.429297,
2010-07-08, 02:12:04,VALID,918.805,VALID,0,VALID,97.5035,VALID,0,VALID,18.8073,VALID,9,VALID,0.223828,
2010-07-08, 02:13:04,VALID,918.77,VALID,0,VALID,97.5111,VALID,0,VALID,18.8268,VALID,9,VALID,0.375,
2010-07-08, 02:14:04,VALID,918.748,VALID,0,VALID,97.5187,VALID,0,VALID,18.8073,VALID,9,VALID,0.746094,
2010-07-08, 02:15:04,VALID,918.729,VALID,0.2,VALID,97.5035,VALID,0,VALID,18.7878,VALID,8,VALID,0.516016,
2010-07-08, 02:16:04,VALID,918.732,VALID,0,VALID,97.5187,VALID,0,VALID,18.7864,VALID,8,VALID,0.528906,
2010-07-08, 02:17:04,VALID,918.706,VALID,0,VALID,97.5111,VALID,0,VALID,18.7669,VALID,8,VALID,0.245312,
2010-07-08, 02:18:04,VALID,918.683,VALID,0,VALID,97.5111,VALID,0,VALID,18.7474,VALID,8,VALID,0.257813,
2010-07-08, 02:19:04,VALID,918.659,VALID,0,VALID,97.5111,VALID,0,VALID,18.7474,VALID,7,VALID,0.760938,
2010-07-08, 02:20:04,VALID,918.656,VALID,0,VALID,97.5111,VALID,0,VALID,18.7683,VALID,242,VALID,0.843359,
2010-07-08, 02:21:04,VALID,918.667,VALID,0,VALID,97.5111,VALID,0,VALID,18.7488,VALID,241,VALID,0.778906,
2010-07-08, 02:22:04,VALID,918.647,VALID,0,VALID,97.5111,VALID,0,VALID,18.7084,VALID,241,VALID,0.942187,
2010-07-08, 02:23:04,VALID,918.675,VALID,0,VALID,97.5035,VALID,0,VALID,18.6889,VALID,241,VALID,1.26289,
2010-07-08, 02:24:04,VALID,918.675,VALID,0,VALID,97.5264,VALID,0,VALID,18.6694,VALID,241,VALID,0.608984,
2010-07-08, 02:25:04,VALID,918.665,VALID,0,VALID,97.534,VALID,0,VALID,18.6903,VALID,242,VALID,0.492969,
2010-07-08, 02:26:04,VALID,918.666,VALID,0,VALID,97.5264,VALID,0,VALID,18.7098,VALID,242,VALID,0.532812,
2010-07-08, 02:27:04,VALID,918.682,VALID,0,VALID,97.5264,VALID,0,VALID,18.6694,VALID,242,VALID,0.755078,
2010-07-08, 02:28:04,VALID,918.673,VALID,0,VALID,97.534,VALID,0,VALID,18.6694,VALID,241,VALID,0.198047,
2010-07-08, 02:29:04,VALID,918.675,VALID,0,VALID,97.5492,VALID,0,VALID,18.7098,VALID,242,VALID,0.453125,
2010-07-08, 02:30:04,VALID,918.682,VALID,0,VALID,97.5416,VALID,0,VALID,18.7098,VALID,241,VALID,0.378906,
2010-07-08, 02:31:04,VALID,918.694,VALID,0,VALID,97.5187,VALID,0,VALID,18.7279,VALID,241,VALID,0,
2010-07-08, 02:32:04,VALID,918.686,VALID,0,VALID,97.534,VALID,0.107441,VALID,18.7279,VALID,241,VALID,0,
2010-07-08, 02:33:04,VALID,918.683,VALID,0,VALID,97.5264,VALID,0.107441,VALID,18.707,VALID,241,VALID,0,
2010-07-08, 02:34:04,VALID,918.677,VALID,0,VALID,97.5492,VALID,0,VALID,18.7084,VALID,241,VALID,0,
2010-07-08, 02:35:04,VALID,918.677,VALID,0,VALID,97.5264,VALID,0,VALID,18.668,VALID,241,VALID,0.0175781,
2010-07-08, 02:36:04,VALID,918.683,VALID,0,VALID,97.534,VALID,0,VALID,18.6889,VALID,241,VALID,0.667578,
2010-07-08, 02:37:04,VALID,918.651,VALID,0,VALID,97.5416,VALID,0,VALID,18.6499,VALID,241,VALID,0.636328,
2010-07-08, 02:38:04,VALID,918.661,VALID,0,VALID,97.5264,VALID,0,VALID,18.6095,VALID,241,VALID,0.542578,
2010-07-08, 02:39:04,VALID,918.663,VALID,0,VALID,97.5569,VALID,0,VALID,18.59,VALID,241,VALID,0.289453,
2010-07-08, 02:40:04,VALID,918.621,VALID,0,VALID,97.5492,VALID,0,VALID,18.6109,VALID,242,VALID,0,
2010-07-08, 02:41:04,VALID,918.625,VALID,0,VALID,97.5569,VALID,0,VALID,18.6095,VALID,241,VALID,0,
2010-07-08, 02:42:04,VALID,918.643,VALID,0,VALID,97.5416,VALID,0,VALID,18.6109,VALID,242,VALID,0.0382813,
2010-07-08, 02:43:04,VALID,918.616,VALID,0,VALID,97.5645,VALID,0,VALID,18.6109,VALID,242,VALID,0,
2010-07-08, 02:44:04,VALID,918.618,VALID,0,VALID,97.5797,VALID,0,VALID,18.6304,VALID,241,VALID,0,
2010-07-08, 02:45:04,VALID,918.624,VALID,0,VALID,97.5721,VALID,0.107441,VALID,18.6095,VALID,241,VALID,0,
2010-07-08, 02:46:04,VALID,918.608,VALID,0,VALID,97.5721,VALID,0,VALID,18.6304,VALID,241,VALID,0,
2010-07-08, 02:47:04,VALID,918.63,VALID,0,VALID,97.5569,VALID,0,VALID,18.6304,VALID,242,VALID,0,
2010-07-08, 02:48:04,VALID,918.615,VALID,0,VALID,97.5645,VALID,0,VALID,18.6513,VALID,241,VALID,0,
2010-07-08, 02:49:04,VALID,918.593,VALID,0,VALID,97.5721,VALID,0,VALID,18.5914,VALID,241,VALID,0.457422,
2010-07-08, 02:50:04,VALID,918.589,VALID,0,VALID,97.5492,VALID,0,VALID,18.5929,VALID,241,VALID,0.483594,
2010-07-08, 02:51:04,VALID,918.581,VALID,0,VALID,97.5797,VALID,0,VALID,18.5734,VALID,242,VALID,0.421094,
2010-07-08, 02:52:04,VALID,918.57,VALID,0,VALID,97.5492,VALID,0,VALID,18.5734,VALID,241,VALID,0.118359,
2010-07-08, 02:53:04,VALID,918.568,VALID,0,VALID,97.5492,VALID,0,VALID,18.572,VALID,241,VALID,0.15,
2010-07-08, 02:54:04,VALID,918.537,VALID,0,VALID,97.5797,VALID,0,VALID,18.5734,VALID,241,VALID,0.01875,
2010-07-08, 02:55:04,VALID,918.489,VALID,0,VALID,97.5797,VALID,0,VALID,18.5734,VALID,242,VALID,0,
2010-07-08, 02:56:04,VALID,918.502,VALID,0,VALID,97.5721,VALID,0,VALID,18.5525,VALID,242,VALID,0,
2010-07-08, 02:57:04,VALID,918.477,VALID,0,VALID,97.5797,VALID,0,VALID,18.6124,VALID,242,VALID,0.00351562,
2010-07-08, 02:58:04,VALID,918.49,VALID,0,VALID,97.6026,VALID,0,VALID,18.6109,VALID,241,VALID,0,
2010-07-08, 02:59:04,VALID,918.497,VALID,0,VALID,97.5797,VALID,0,VALID,18.6319,VALID,241,VALID,0,
2010-07-08, 03:00:04,VALID,918.493,VALID,0,VALID,97.5797,VALID,0,VALID,18.6319,VALID,242,VALID,0,
2010-07-08, 03:01:04,VALID,918.463,VALID,0,VALID,97.595,VALID,0,VALID,18.6304,VALID,241,VALID,0,
2010-07-08, 03:02:04,VALID,918.458,VALID,0,VALID,97.5873,VALID,0,VALID,18.6513,VALID,242,VALID,0,
2010-07-08, 03:03:04,VALID,918.461,VALID,0,VALID,97.5873,VALID,0,VALID,18.6304,VALID,241,VALID,0,
2010-07-08, 03:04:04,VALID,918.449,VALID,0,VALID,97.595,VALID,0,VALID,18.6109,VALID,241,VALID,0,
2010-07-08, 03:05:04,VALID,918.462,VALID,0,VALID,97.5873,VALID,0,VALID,18.6109,VALID,241,VALID,0,
2010-07-08, 03:06:04,VALID,918.442,VALID,0.2,VALID,97.6026,VALID,0,VALID,18.6109,VALID,241,VALID,0,
2010-07-08, 03:07:04,VALID,918.487,VALID,0,VALID,97.5873,VALID,0,VALID,18.6109,VALID,241,VALID,0,
2010-07-08, 03:08:04,VALID,918.501,VALID,0,VALID,97.595,VALID,0,VALID,18.5914,VALID,241,VALID,0,
2010-07-08, 03:09:04,VALID,918.498,VALID,0,VALID,97.5492,VALID,0,VALID,18.572,VALID,241,VALID,0,
2010-07-08, 03:10:04,VALID,918.497,VALID,0,VALID,97.5873,VALID,0,VALID,18.533,VALID,241,VALID,0,
2010-07-08, 03:11:04,VALID,918.515,VALID,0,VALID,97.5797,VALID,0,VALID,18.533,VALID,242,VALID,0.123438,
2010-07-08, 03:12:04,VALID,918.492,VALID,0,VALID,97.5797,VALID,0,VALID,18.572,VALID,242,VALID,0.551953,
2010-07-08, 03:13:04,VALID,918.496,VALID,0,VALID,97.6026,VALID,0,VALID,18.533,VALID,242,VALID,0.611328,
2010-07-08, 03:14:04,VALID,918.482,VALID,0,VALID,97.595,VALID,0,VALID,18.5539,VALID,241,VALID,0.417578,
2010-07-08, 03:15:04,VALID,918.457,VALID,0,VALID,97.5873,VALID,0,VALID,18.5525,VALID,241,VALID,0.218359,
2010-07-08, 03:16:04,VALID,918.502,VALID,0,VALID,97.5873,VALID,0,VALID,18.5525,VALID,241,VALID,0.214062,
2010-07-08, 03:17:04,VALID,918.463,VALID,0,VALID,97.5873,VALID,0,VALID,18.5525,VALID,242,VALID,0.207031,
2010-07-08, 03:18:04,VALID,918.467,VALID,0,VALID,97.5797,VALID,0,VALID,18.5135,VALID,242,VALID,0.55625,
2010-07-08, 03:19:04,VALID,918.467,VALID,0,VALID,97.595,VALID,0,VALID,18.5135,VALID,242,VALID,0.722266,
2010-07-08, 03:20:04,VALID,918.448,VALID,0,VALID,97.595,VALID,0,VALID,18.494,VALID,241,VALID,0.809375,
2010-07-08, 03:21:04,VALID,918.453,VALID,0,VALID,97.595,VALID,0,VALID,18.494,VALID,241,VALID,0.774609,
2010-07-08, 03:22:04,VALID,918.478,VALID,0,VALID,97.595,VALID,0,VALID,18.494,VALID,241,VALID,0.780078,
2010-07-08, 03:23:04,VALID,918.481,VALID,0,VALID,97.595,VALID,0,VALID,18.494,VALID,241,VALID,0.680859,
2010-07-08, 03:24:04,VALID,918.469,VALID,0,VALID,97.6102,VALID,0,VALID,18.494,VALID,241,VALID,0.602734,
2010-07-08, 03:25:04,VALID,918.441,VALID,0,VALID,97.595,VALID,0,VALID,18.494,VALID,241,VALID,0.461328,
2010-07-08, 03:26:04,VALID,918.429,VALID,0,VALID,97.6178,VALID,0,VALID,18.494,VALID,241,VALID,0.378125,
2010-07-08, 03:27:04,VALID,918.43,VALID,0,VALID,97.6102,VALID,0,VALID,18.5135,VALID,241,VALID,0.330078,
2010-07-08, 03:28:04,VALID,918.403,VALID,0,VALID,97.6178,VALID,0,VALID,18.494,VALID,241,VALID,0.303125,
2010-07-08, 03:29:04,VALID,918.415,VALID,0,VALID,97.6102,VALID,0,VALID,18.5135,VALID,241,VALID,0.269141,
2010-07-08, 03:30:04,VALID,918.387,VALID,0,VALID,97.595,VALID,0,VALID,18.5135,VALID,241,VALID,0.248047,
2010-07-08, 03:31:04,VALID,918.392,VALID,0,VALID,97.6102,VALID,0,VALID,18.494,VALID,242,VALID,0.236328,
2010-07-08, 03:32:04,VALID,918.372,VALID,0,VALID,97.6178,VALID,0,VALID,18.5135,VALID,241,VALID,0.194141,
2010-07-08, 03:33:04,VALID,918.37,VALID,0,VALID,97.595,VALID,0,VALID,18.5135,VALID,241,VALID,0,
2010-07-08, 03:34:04,VALID,918.394,VALID,0,VALID,97.6102,VALID,0,VALID,18.5135,VALID,241,VALID,0,
2010-07-08, 03:35:04,VALID,918.412,VALID,0,VALID,97.6255,VALID,0,VALID,18.533,VALID,241,VALID,0.0394531,
2010-07-08, 03:36:04,VALID,918.413,VALID,0,VALID,97.6026,VALID,0,VALID,18.533,VALID,242,VALID,0.078125,
2010-07-08, 03:37:04,VALID,918.435,VALID,0,VALID,97.6178,VALID,0,VALID,18.5525,VALID,241,VALID,0.407813,
2010-07-08, 03:38:04,VALID,918.433,VALID,0,VALID,97.6026,VALID,0,VALID,18.533,VALID,241,VALID,0.4375,
2010-07-08, 03:39:04,VALID,918.461,VALID,0,VALID,97.5873,VALID,0,VALID,18.494,VALID,241,VALID,0.571484,
2010-07-08, 03:40:04,VALID,918.456,VALID,0,VALID,97.5721,VALID,0,VALID,18.4954,VALID,241,VALID,0.752734,
2010-07-08, 03:41:04,VALID,918.448,VALID,0,VALID,97.5873,VALID,0,VALID,18.455,VALID,242,VALID,0.739453,
2010-07-08, 03:42:04,VALID,918.441,VALID,0,VALID,97.5873,VALID,0,VALID,18.4564,VALID,241,VALID,0.605469,
2010-07-08, 03:43:04,VALID,918.425,VALID,0,VALID,97.6026,VALID,0,VALID,18.4355,VALID,241,VALID,0.468359,
2010-07-08, 03:44:04,VALID,918.407,VALID,0,VALID,97.595,VALID,0,VALID,18.4355,VALID,241,VALID,0.382031,
2010-07-08, 03:45:04,VALID,918.366,VALID,0,VALID,97.595,VALID,0,VALID,18.4355,VALID,241,VALID,0.435547,
2010-07-08, 03:46:04,VALID,918.362,VALID,0,VALID,97.6178,VALID,0,VALID,18.455,VALID,242,VALID,0.593359,
2010-07-08, 03:47:04,VALID,918.313,VALID,0,VALID,97.6026,VALID,0,VALID,18.4954,VALID,242,VALID,0.709766,
2010-07-08, 03:48:04,VALID,918.304,VALID,0,VALID,97.6026,VALID,0,VALID,18.5135,VALID,241,VALID,0.483984,
2010-07-08, 03:49:04,VALID,918.259,VALID,0,VALID,97.6102,VALID,0,VALID,18.5135,VALID,241,VALID,0.485156,
2010-07-08, 03:50:04,VALID,918.269,VALID,0,VALID,97.6178,VALID,0,VALID,18.5135,VALID,241,VALID,0.398438,
2010-07-08, 03:51:04,VALID,918.258,VALID,0,VALID,97.6102,VALID,0,VALID,18.533,VALID,242,VALID,0.198828,